Time,TemperatureF,DewpointF,PressureIn,WindDirection,WindDirectionDegrees,WindSpeedMPH,WindSpeedGustMPH,Humidity,HourlyPrecipIn,Conditions,Clouds,dailyrainin,SoftwareType,DateUTC
2013-03-28 00:00:00,33.2,29.8,30.04,WNW,289,2.3,2.3,87,0.00,RA,,0.00,WeatherDisplay:10.37,2013-03-28 04:00:00,
2013-03-28 00:01:00,33.2,29.8,30.04,West,268,3.5,3.5,87,0.00,RA,,0.00,WeatherDisplay:10.37,2013-03-28 04:01:00,
2013-03-28 00:06:00,33.3,29.8,30.04,West,273,0.0,0.0,87,0.00,RA,,0.00,WeatherDisplay:10.37,2013-03-28 04:06:00,
2013-03-28 00:12:00,33.3,30.1,30.04,WNW,297,1.0,1.0,88,0.00,,,0.00,WeatherDisplay:10.37,2013-03-28 04:12:00,
2013-03-28 00:17:00,33.3,30.1,30.04,West,263,0.0,0.0,88,0.00,,,0.00,WeatherDisplay:10.37,2013-03-28 04:17:00,
2013-03-28 00:22:00,33.3,30.1,30.04,West,263,0.0,0.0,88,0.00,,,0.00,WeatherDisplay:10.37,2013-03-28 04:22:00,
2013-03-28 00:27:00,33.4,29.9,30.04,WNW,283,2.3,2.3,87,0.00,,,0.00,WeatherDisplay:10.37,2013-03-28 04:27:00,
2013-03-28 00:32:00,33.5,30.0,30.04,NW,306,1.1,1.1,87,0.00,,,0.00,WeatherDisplay:10.37,2013-03-28 04:32:00,
2013-03-28 00:37:00,33.5,30.3,30.04,WSW,257,3.5,3.5,88,0.00,,,0.00,WeatherDisplay:10.37,2013-03-28 04:37:00,
2013-03-28 00:42:00,33.4,30.2,30.04,NW,308,1.1,1.1,88,0.00,,,0.00,WeatherDisplay:10.37,2013-03-28 04:42:00,
2013-03-28 00:47:00,33.4,30.2,30.04,SW,221,3.0,3.0,88,0.00,,,0.00,WeatherDisplay:10.37,2013-03-28 04:47:00,
2013-03-28 00:52:00,33.5,30.0,30.03,South,191,1.1,1.1,87,0.00,,,0.00,WeatherDisplay:10.37,2013-03-28 04:52:00,
2013-03-28 00:57:00,33.6,30.1,30.03,WNW,289,5.8,5.8,87,0.00,,,0.00,WeatherDisplay:10.37,2013-03-28 04:57:00,
2013-03-28 01:02:00,33.6,30.4,30.04,NNW,345,1.1,0.0,88,0.00,,,0.00,WeatherDisplay:10.37,2013-03-28 05:02:00,
2013-03-28 01:07:00,33.6,30.4,30.04,WNW,290,1.1,1.1,88,0.00,,,0.00,WeatherDisplay:10.37,2013-03-28 05:07:00,
2013-03-28 01:12:00,33.7,30.5,30.04,West,280,1.0,1.0,88,0.00,,,0.00,WeatherDisplay:10.37,2013-03-28 05:12:00,
2013-03-28 01:17:00,33.7,30.5,30.04,WNW,283,5.8,5.8,88,0.00,,,0.00,WeatherDisplay:10.37,2013-03-28 05:17:00,
2013-03-28 01:22:00,33.8,30.6,30.04,WSW,257,2.3,2.3,88,0.00,,,0.00,WeatherDisplay:10.37,2013-03-28 05:22:00,
2013-03-28 01:27:00,33.8,30.6,30.04,West,263,3.5,3.5,88,0.00,,,0.00,WeatherDisplay:10.37,2013-03-28 05:27:00,
2013-03-28 01:32:00,33.8,30.9,30.04,NW,319,6.0,6.0,89,0.00,,,0.00,WeatherDisplay:10.37,2013-03-28 05:32:00,
2013-03-28 01:37:00,33.8,30.9,30.04,West,268,4.6,4.6,89,0.00,,,0.00,WeatherDisplay:10.37,2013-03-28 05:37:00,
2013-03-28 01:42:00,33.9,31.0,30.04,WNW,298,3.0,3.0,89,0.00,,,0.00,WeatherDisplay:10.37,2013-03-28 05:42:00,
2013-03-28 01:47:00,33.9,31.0,30.03,West,266,3.5,3.5,89,0.00,,,0.00,WeatherDisplay:10.37,2013-03-28 05:47:00,
2013-03-28 01:52:00,33.9,31.3,30.03,WNW,295,1.1,1.1,90,0.00,,,0.00,WeatherDisplay:10.37,2013-03-28 05:52:00,
2013-03-28 01:57:00,33.8,31.2,30.04,WNW,297,1.1,1.1,90,0.00,,,0.00,WeatherDisplay:10.37,2013-03-28 05:57:00,
2013-03-28 02:02:00,33.8,31.2,30.04,WNW,287,0.0,1.0,90,0.00,,,0.00,WeatherDisplay:10.37,2013-03-28 06:02:00,
2013-03-28 02:07:00,33.8,30.9,30.04,SW,236,1.1,1.1,89,0.00,,,0.00,WeatherDisplay:10.37,2013-03-28 06:07:00,
2013-03-28 02:12:00,33.8,30.9,30.04,West,274,1.1,1.1,89,0.00,,,0.00,WeatherDisplay:10.37,2013-03-28 06:12:00,
2013-03-28 02:17:00,33.9,31.0,30.03,West,264,2.3,2.3,89,0.00,,,0.00,WeatherDisplay:10.37,2013-03-28 06:17:00,
2013-03-28 02:23:00,33.8,31.2,30.03,WNW,282,2.3,2.3,90,0.00,,,0.00,WeatherDisplay:10.37,2013-03-28 06:23:00,
2013-03-28 02:28:00,33.9,31.3,30.04,West,274,3.5,3.5,90,0.00,,,0.00,WeatherDisplay:10.37,2013-03-28 06:28:00,
2013-03-28 02:33:00,33.8,31.2,30.04,WNW,302,1.1,1.1,90,0.00,,,0.00,WeatherDisplay:10.37,2013-03-28 06:33:00,
2013-03-28 02:38:00,33.8,31.2,30.04,NW,312,3.5,3.5,90,0.00,,,0.00,WeatherDisplay:10.37,2013-03-28 06:38:00,
2013-03-28 02:43:00,33.8,31.2,30.04,West,281,0.0,0.0,90,0.00,,,0.00,WeatherDisplay:10.37,2013-03-28 06:43:00,
2013-03-28 02:48:00,33.8,31.2,30.04,West,280,1.1,1.1,90,0.00,,,0.00,WeatherDisplay:10.37,2013-03-28 06:48:00,
2013-03-28 02:53:00,33.8,31.2,30.04,West,277,3.5,3.5,90,0.00,,,0.00,WeatherDisplay:10.37,2013-03-28 06:53:00,
2013-03-28 02:58:00,33.8,31.2,30.04,WSW,257,2.3,2.3,90,0.00,,,0.00,WeatherDisplay:10.37,2013-03-28 06:58:00,
2013-03-28 03:03:00,33.8,31.2,30.04,West,270,3.5,3.5,90,0.00,,,0.00,WeatherDisplay:10.37,2013-03-28 07:03:00,
2013-03-28 03:08:00,33.8,31.2,30.04,WNW,295,2.0,2.0,90,0.00,,,0.00,WeatherDisplay:10.37,2013-03-28 07:08:00,
2013-03-28 03:13:00,33.8,31.2,30.04,NW,325,2.3,2.3,90,0.00,,,0.00,WeatherDisplay:10.37,2013-03-28 07:13:00,
2013-03-28 03:18:00,33.9,31.3,30.04,West,267,1.1,1.1,90,0.00,,,0.00,WeatherDisplay:10.37,2013-03-28 07:18:00,
2013-03-28 03:23:00,33.9,31.3,30.04,West,260,3.5,3.5,90,0.00,,,0.00,WeatherDisplay:10.37,2013-03-28 07:23:00,
2013-03-28 03:28:00,33.9,31.3,30.04,NW,311,1.1,0.0,90,0.00,,,0.00,WeatherDisplay:10.37,2013-03-28 07:28:00,
2013-03-28 03:33:00,33.9,31.3,30.04,WNW,300,1.1,1.1,90,0.00,,,0.00,WeatherDisplay:10.37,2013-03-28 07:33:00,
2013-03-28 03:38:00,33.9,31.3,30.04,NW,314,2.3,2.3,90,0.00,,,0.00,WeatherDisplay:10.37,2013-03-28 07:38:00,
2013-03-28 03:43:00,33.9,31.3,30.04,West,280,3.5,3.5,90,0.00,,,0.00,WeatherDisplay:10.37,2013-03-28 07:43:00,
2013-03-28 03:48:00,33.9,31.3,30.04,West,281,3.5,3.5,90,0.00,,,0.00,WeatherDisplay:10.37,2013-03-28 07:48:00,
2013-03-28 03:53:00,33.9,31.3,30.04,West,274,1.1,1.1,90,0.00,,,0.00,WeatherDisplay:10.37,2013-03-28 07:53:00,
2013-03-28 03:58:00,33.9,31.3,30.04,West,262,2.3,2.3,90,0.00,,,0.00,WeatherDisplay:10.37,2013-03-28 07:58:00,
2013-03-28 04:03:00,33.8,31.2,30.04,WNW,299,2.0,2.0,90,0.00,,,0.00,WeatherDisplay:10.37,2013-03-28 08:03:00,
2013-03-28 04:08:00,33.7,31.1,30.04,West,262,1.1,1.1,90,0.00,,,0.00,WeatherDisplay:10.37,2013-03-28 08:08:00,
2013-03-28 04:13:00,33.7,31.1,30.04,NW,319,3.0,3.0,90,0.00,,,0.00,WeatherDisplay:10.37,2013-03-28 08:13:00,
2013-03-28 04:18:00,33.7,31.1,30.04,WNW,293,3.5,3.5,90,0.00,,,0.00,WeatherDisplay:10.37,2013-03-28 08:18:00,
2013-03-28 04:23:00,33.7,31.1,30.04,WNW,288,3.5,3.5,90,0.00,,,0.00,WeatherDisplay:10.37,2013-03-28 08:23:00,
2013-03-28 04:28:00,33.8,31.2,30.04,NW,307,1.1,1.1,90,0.00,,,0.00,WeatherDisplay:10.37,2013-03-28 08:28:00,
2013-03-28 04:33:00,33.7,31.1,30.04,WNW,293,4.0,4.0,90,0.00,,,0.00,WeatherDisplay:10.37,2013-03-28 08:33:00,
2013-03-28 04:38:00,33.7,31.1,30.04,West,263,2.3,2.3,90,0.00,,,0.00,WeatherDisplay:10.37,2013-03-28 08:38:00,
2013-03-28 04:43:00,33.7,31.1,30.04,WNW,297,4.6,4.6,90,0.00,,,0.00,WeatherDisplay:10.37,2013-03-28 08:43:00,
2013-03-28 04:48:00,33.8,31.2,30.04,West,276,2.3,2.3,90,0.00,,,0.00,WeatherDisplay:10.37,2013-03-28 08:48:00,
2013-03-28 04:53:00,33.8,31.2,30.04,WNW,294,3.5,3.5,90,0.00,,,0.00,WeatherDisplay:10.37,2013-03-28 08:53:00,
2013-03-28 04:58:00,33.8,31.2,30.04,SSW,210,2.3,2.3,90,0.00,,,0.00,WeatherDisplay:10.37,2013-03-28 08:58:00,
2013-03-28 05:03:00,33.7,31.1,30.04,NE,39,2.3,2.3,90,0.00,,,0.00,WeatherDisplay:10.37,2013-03-28 09:03:00,
2013-03-28 05:08:00,33.7,31.1,30.04,WNW,295,3.5,3.5,90,0.00,,,0.00,WeatherDisplay:10.37,2013-03-28 09:08:00,
2013-03-28 05:13:00,33.7,31.1,30.05,WNW,283,2.3,2.3,90,0.00,,,0.00,WeatherDisplay:10.37,2013-03-28 09:13:00,
2013-03-28 05:18:00,33.7,31.1,30.05,West,273,1.1,1.1,90,0.00,,,0.00,WeatherDisplay:10.37,2013-03-28 09:18:00,
2013-03-28 05:23:00,33.7,31.1,30.05,WNW,283,1.1,1.1,90,0.00,,,0.00,WeatherDisplay:10.37,2013-03-28 09:23:00,
2013-03-28 05:28:00,33.7,31.1,30.05,West,278,0.0,0.0,90,0.00,,,0.00,WeatherDisplay:10.37,2013-03-28 09:28:00,
2013-03-28 05:33:00,33.7,31.1,30.05,West,266,3.5,3.5,90,0.00,,,0.00,WeatherDisplay:10.37,2013-03-28 09:33:00,
2013-03-28 05:38:00,33.7,31.1,30.05,NW,309,3.5,3.5,90,0.00,,,0.00,WeatherDisplay:10.37,2013-03-28 09:38:00,
2013-03-28 05:43:00,33.7,31.1,30.05,West,277,3.5,3.5,90,0.00,,,0.00,WeatherDisplay:10.37,2013-03-28 09:43:00,
2013-03-28 05:48:00,33.8,31.2,30.06,NW,305,3.5,3.5,90,0.00,,,0.00,WeatherDisplay:10.37,2013-03-28 09:48:00,
2013-03-28 05:53:00,33.8,31.2,30.06,West,269,2.3,2.3,90,0.00,,,0.00,WeatherDisplay:10.37,2013-03-28 09:53:00,
2013-03-28 05:58:00,33.9,31.3,30.06,WNW,289,3.5,3.5,90,0.00,,,0.00,WeatherDisplay:10.37,2013-03-28 09:58:00,
2013-03-28 06:03:00,33.9,31.3,30.06,WSW,250,1.1,1.1,90,0.00,,,0.00,WeatherDisplay:10.37,2013-03-28 10:03:00,
2013-03-28 06:08:00,33.9,31.3,30.06,WNW,287,1.1,1.1,90,0.00,,,0.00,WeatherDisplay:10.37,2013-03-28 10:08:00,
2013-03-28 06:13:00,33.9,31.3,30.06,SW,231,4.0,4.0,90,0.00,,,0.00,WeatherDisplay:10.37,2013-03-28 10:13:00,
2013-03-28 06:18:00,33.9,31.3,30.06,West,271,2.3,2.3,90,0.00,,,0.00,WeatherDisplay:10.37,2013-03-28 10:18:00,
2013-03-28 06:23:00,33.9,31.3,30.06,WNW,283,5.8,5.8,90,0.00,,,0.00,WeatherDisplay:10.37,2013-03-28 10:23:00,
2013-03-28 06:28:00,34.0,31.6,30.06,West,271,0.0,0.0,91,0.00,CLR,,0.00,WeatherDisplay:10.37,2013-03-28 10:28:00,
2013-03-28 06:33:00,33.9,31.3,30.06,West,274,3.5,3.5,90,0.00,CLR,,0.00,WeatherDisplay:10.37,2013-03-28 10:33:00,
2013-03-28 06:38:00,33.9,31.3,30.06,West,271,0.0,0.0,90,0.00,CLR,,0.00,WeatherDisplay:10.37,2013-03-28 10:38:00,
2013-03-28 06:43:00,34.0,31.4,30.07,West,273,2.3,2.3,90,0.00,CLR,,0.00,WeatherDisplay:10.37,2013-03-28 10:43:00,
2013-03-28 06:48:00,34.0,31.4,30.07,WNW,285,3.5,3.5,90,0.00,CLR,,0.00,WeatherDisplay:10.37,2013-03-28 10:48:00,
2013-03-28 06:53:00,34.0,31.4,30.07,WNW,294,3.5,3.5,90,0.00,CLR,,0.00,WeatherDisplay:10.37,2013-03-28 10:53:00,
2013-03-28 06:58:00,34.0,31.4,30.07,WNW,283,1.1,1.1,90,0.00,CLR,,0.00,WeatherDisplay:10.37,2013-03-28 10:58:00,
2013-03-28 07:03:00,34.0,31.4,30.07,ENE,58,1.1,1.1,90,0.00,CLR,,0.00,WeatherDisplay:10.37,2013-03-28 11:03:00,
2013-03-28 07:08:00,34.0,31.4,30.07,West,277,1.1,1.1,90,0.00,CLR,,0.00,WeatherDisplay:10.37,2013-03-28 11:08:00,
2013-03-28 07:13:00,34.1,31.5,30.08,WNW,302,2.3,0.0,90,0.00,CLR,,0.00,WeatherDisplay:10.37,2013-03-28 11:13:00,
2013-03-28 07:18:00,34.1,31.5,30.08,West,262,2.0,2.0,90,0.00,CLR,,0.00,WeatherDisplay:10.37,2013-03-28 11:18:00,
2013-03-28 07:23:00,34.2,31.6,30.08,West,280,3.5,3.5,90,0.00,CLR,,0.00,WeatherDisplay:10.37,2013-03-28 11:23:00,
2013-03-28 07:28:00,34.2,31.6,30.08,West,281,3.5,3.5,90,0.00,CLR,,0.00,WeatherDisplay:10.37,2013-03-28 11:28:00,
2013-03-28 07:33:00,34.3,31.9,30.08,NW,304,3.5,3.5,91,0.00,CLR,,0.00,WeatherDisplay:10.37,2013-03-28 11:33:00,
2013-03-28 07:38:00,34.4,32.0,30.08,West,273,3.0,3.0,91,0.00,CLR,,0.00,WeatherDisplay:10.37,2013-03-28 11:38:00,
2013-03-28 07:43:00,34.4,32.0,30.08,West,276,0.0,0.2,91,0.00,CLR,,0.00,WeatherDisplay:10.37,2013-03-28 11:43:00,
2013-03-28 07:48:00,34.5,32.1,30.09,WNW,287,2.3,2.3,91,0.00,CLR,,0.00,WeatherDisplay:10.37,2013-03-28 11:48:00,
2013-03-28 07:53:00,34.6,32.2,30.09,North,350,2.3,2.3,91,0.00,CLR,,0.00,WeatherDisplay:10.37,2013-03-28 11:53:00,
2013-03-28 07:58:00,34.7,32.3,30.09,West,259,3.5,3.5,91,0.00,CLR,,0.00,WeatherDisplay:10.37,2013-03-28 11:58:00,
2013-03-28 08:03:00,34.7,32.3,30.09,WNW,284,3.5,3.5,91,0.00,CLR,,0.00,WeatherDisplay:10.37,2013-03-28 12:03:00,
2013-03-28 08:08:00,34.8,32.4,30.10,WNW,289,2.3,2.3,91,0.00,CLR,,0.00,WeatherDisplay:10.37,2013-03-28 12:08:00,
2013-03-28 08:14:00,34.9,32.5,30.10,West,271,1.1,2.5,91,0.00,CLR,,0.00,WeatherDisplay:10.37,2013-03-28 12:14:00,
2013-03-28 08:19:00,35.1,32.7,30.10,West,273,3.5,3.5,91,0.00,CLR,,0.00,WeatherDisplay:10.37,2013-03-28 12:19:00,
2013-03-28 08:24:00,35.2,32.8,30.10,WNW,282,3.5,3.5,91,0.00,CLR,,0.00,WeatherDisplay:10.37,2013-03-28 12:24:00,
2013-03-28 08:29:00,35.3,32.9,30.10,West,271,4.6,4.6,91,0.00,CLR,,0.00,WeatherDisplay:10.37,2013-03-28 12:29:00,
2013-03-28 08:34:00,35.3,32.9,30.10,WNW,288,3.5,3.5,91,0.00,CLR,,0.00,WeatherDisplay:10.37,2013-03-28 12:34:00,
2013-03-28 08:39:00,35.3,32.9,30.10,West,271,4.6,4.6,91,0.00,CLR,,0.00,WeatherDisplay:10.37,2013-03-28 12:39:00,
2013-03-28 08:44:00,35.3,32.9,30.10,NW,308,4.6,4.6,91,0.00,CLR,,0.00,WeatherDisplay:10.37,2013-03-28 12:44:00,
2013-03-28 08:49:00,35.4,33.0,30.10,West,265,2.3,2.3,91,0.00,CLR,,0.00,WeatherDisplay:10.37,2013-03-28 12:49:00,
2013-03-28 08:54:00,35.5,33.1,30.10,WNW,288,3.5,3.5,91,0.01,RA,,0.01,WeatherDisplay:10.37,2013-03-28 12:54:00,
2013-03-28 08:59:00,35.7,33.3,30.10,WSW,255,4.0,4.0,91,0.01,RA,,0.01,WeatherDisplay:10.37,2013-03-28 12:59:00,
2013-03-28 09:04:00,35.9,33.5,30.11,NW,325,7.0,7.0,91,0.01,CLR,,0.01,WeatherDisplay:10.37,2013-03-28 13:04:00,
2013-03-28 09:09:00,36.1,33.7,30.11,NW,325,5.8,5.8,91,0.01,CLR,,0.01,WeatherDisplay:10.37,2013-03-28 13:09:00,
2013-03-28 09:14:00,36.2,33.8,30.11,WNW,297,8.1,8.1,91,0.01,CLR,,0.01,WeatherDisplay:10.37,2013-03-28 13:14:00,
2013-03-28 09:19:00,36.3,33.6,30.11,WSW,255,3.5,3.5,90,0.01,CLR,,0.01,WeatherDisplay:10.37,2013-03-28 13:19:00,
2013-03-28 09:24:00,36.5,33.8,30.11,WNW,297,3.5,3.5,90,0.01,CLR,,0.01,WeatherDisplay:10.37,2013-03-28 13:24:00,
2013-03-28 09:29:00,36.7,34.0,30.11,West,262,4.6,4.6,90,0.01,CLR,,0.01,WeatherDisplay:10.37,2013-03-28 13:29:00,
2013-03-28 09:34:00,36.8,34.1,30.11,West,259,4.6,4.6,90,0.01,CLR,,0.01,WeatherDisplay:10.37,2013-03-28 13:34:00,
2013-03-28 09:39:00,37.0,34.3,30.11,WNW,295,3.5,3.5,90,0.01,CLR,,0.01,WeatherDisplay:10.37,2013-03-28 13:39:00,
2013-03-28 09:44:00,37.2,34.5,30.11,West,271,8.0,8.0,90,0.01,CLR,,0.01,WeatherDisplay:10.37,2013-03-28 13:44:00,
2013-03-28 09:49:00,37.4,34.5,30.11,WNW,290,3.0,3.0,89,0.01,CLR,,0.01,WeatherDisplay:10.37,2013-03-28 13:49:00,
2013-03-28 09:54:00,37.7,34.8,30.11,West,271,3.5,3.5,89,0.00,CLR,,0.01,WeatherDisplay:10.37,2013-03-28 13:54:00,
2013-03-28 09:59:00,37.9,34.9,30.12,West,271,4.0,4.0,89,0.00,CLR,,0.01,WeatherDisplay:10.37,2013-03-28 13:59:00,
2013-03-28 10:04:00,37.8,34.3,30.12,NNW,348,5.8,5.8,87,0.00,CLR,,0.01,WeatherDisplay:10.37,2013-03-28 14:04:00,
2013-03-28 10:09:00,38.1,34.9,30.12,NW,312,3.0,3.0,88,0.00,CLR,,0.01,WeatherDisplay:10.37,2013-03-28 14:09:00,
2013-03-28 10:14:00,38.2,34.7,30.12,West,263,3.5,3.5,87,0.00,CLR,,0.01,WeatherDisplay:10.37,2013-03-28 14:14:00,
2013-03-28 10:19:00,38.3,34.8,30.12,WNW,290,3.5,3.5,87,0.00,CLR,,0.01,WeatherDisplay:10.37,2013-03-28 14:19:00,
2013-03-28 10:24:00,38.7,35.2,30.12,West,260,3.5,3.5,87,0.00,CLR,,0.01,WeatherDisplay:10.37,2013-03-28 14:24:00,
2013-03-28 10:29:00,38.9,35.1,30.12,West,275,6.0,6.0,86,0.00,CLR,,0.01,WeatherDisplay:10.37,2013-03-28 14:29:00,
2013-03-28 10:34:00,38.9,35.1,30.12,West,278,4.6,4.6,86,0.00,CLR,,0.01,WeatherDisplay:10.37,2013-03-28 14:34:00,
2013-03-28 10:39:00,38.9,34.8,30.12,SW,232,3.5,3.5,85,0.00,CLR,,0.01,WeatherDisplay:10.37,2013-03-28 14:39:00,
2013-03-28 10:44:00,39.3,35.2,30.13,WNW,283,3.5,3.5,85,0.00,CLR,,0.01,WeatherDisplay:10.37,2013-03-28 14:44:00,
2013-03-28 10:49:00,39.5,35.4,30.13,SW,226,3.5,3.5,85,0.00,CLR,,0.01,WeatherDisplay:10.37,2013-03-28 14:49:00,
2013-03-28 10:54:00,40.1,35.7,30.13,WNW,285,4.0,4.0,84,0.00,CLR,,0.01,WeatherDisplay:10.37,2013-03-28 14:54:00,
2013-03-28 10:59:00,40.2,35.1,30.13,WNW,301,5.8,5.8,82,0.00,CLR,,0.01,WeatherDisplay:10.37,2013-03-28 14:59:00,
2013-03-28 11:04:00,40.3,35.2,30.13,WSW,258,5.8,5.8,82,0.00,CLR,,0.01,WeatherDisplay:10.37,2013-03-28 15:04:00,
2013-03-28 11:09:00,40.5,35.4,30.13,WNW,285,4.6,4.6,82,0.00,CLR,,0.01,WeatherDisplay:10.37,2013-03-28 15:09:00,
2013-03-28 11:14:00,40.9,35.8,30.13,ESE,107,3.5,3.5,82,0.00,CLR,,0.01,WeatherDisplay:10.37,2013-03-28 15:14:00,
2013-03-28 11:19:00,41.4,36.0,30.13,North,5,6.9,6.9,81,0.00,CLR,,0.01,WeatherDisplay:10.37,2013-03-28 15:19:00,
2013-03-28 11:24:00,41.7,36.0,30.13,WNW,294,4.0,4.0,80,0.00,CLR,,0.01,WeatherDisplay:10.37,2013-03-28 15:24:00,
2013-03-28 11:29:00,42.2,36.8,30.13,SW,232,3.5,3.5,81,0.00,CLR,,0.01,WeatherDisplay:10.37,2013-03-28 15:29:00,
2013-03-28 11:35:00,42.2,35.8,30.13,NNE,16,5.8,5.8,78,0.00,CLR,,0.01,WeatherDisplay:10.37,2013-03-28 15:35:00,
2013-03-28 11:40:00,42.7,36.3,30.13,West,276,3.5,3.5,78,0.00,CLR,,0.01,WeatherDisplay:10.37,2013-03-28 15:40:00,
2013-03-28 11:45:00,42.6,34.9,30.13,WSW,245,8.1,8.1,74,0.00,CLR,,0.01,WeatherDisplay:10.37,2013-03-28 15:45:00,
2013-03-28 11:50:00,42.5,35.1,30.13,NW,311,10.4,10.4,75,0.00,CLR,,0.01,WeatherDisplay:10.37,2013-03-28 15:50:00,
2013-03-28 11:55:00,42.7,35.3,30.13,WSW,250,6.9,6.9,75,0.00,CLR,,0.01,WeatherDisplay:10.37,2013-03-28 15:55:00,
2013-03-28 12:00:00,43.2,35.5,30.13,West,277,8.1,8.1,74,0.00,CLR,,0.01,WeatherDisplay:10.37,2013-03-28 16:00:00,
2013-03-28 12:05:00,43.3,35.6,30.13,WNW,284,4.6,4.6,74,0.00,CLR,,0.01,WeatherDisplay:10.37,2013-03-28 16:05:00,
2013-03-28 12:10:00,43.3,34.9,30.13,West,273,9.2,9.2,72,0.00,CLR,,0.01,WeatherDisplay:10.37,2013-03-28 16:10:00,
2013-03-28 12:15:00,43.4,35.7,30.13,NW,316,3.5,3.5,74,0.00,CLR,,0.01,WeatherDisplay:10.37,2013-03-28 16:15:00,
2013-03-28 12:20:00,43.5,35.1,30.13,West,273,4.0,4.0,72,0.00,CLR,,0.01,WeatherDisplay:10.37,2013-03-28 16:20:00,
2013-03-28 12:25:00,43.9,34.7,30.13,NNW,347,6.9,6.9,70,0.00,CLR,,0.01,WeatherDisplay:10.37,2013-03-28 16:25:00,
2013-03-28 12:30:00,43.7,34.6,30.13,NW,307,4.6,4.6,70,0.00,CLR,,0.01,WeatherDisplay:10.37,2013-03-28 16:30:00,
2013-03-28 12:35:00,43.5,34.4,30.13,NNW,328,11.5,11.5,70,0.00,CLR,,0.01,WeatherDisplay:10.37,2013-03-28 16:35:00,
2013-03-28 12:40:00,43.8,35.4,30.12,NW,314,3.5,3.5,72,0.00,CLR,,0.01,WeatherDisplay:10.37,2013-03-28 16:40:00,
2013-03-28 12:45:00,44.1,35.3,30.13,West,262,10.4,10.4,71,0.00,CLR,,0.01,WeatherDisplay:10.37,2013-03-28 16:45:00,
2013-03-28 12:50:00,43.8,34.3,30.13,WSW,245,11.5,11.5,69,0.00,CLR,,0.01,WeatherDisplay:10.37,2013-03-28 16:50:00,
2013-03-28 12:55:00,43.6,34.1,30.13,WSW,255,10.4,10.4,69,0.00,CLR,,0.01,WeatherDisplay:10.37,2013-03-28 16:55:00,
2013-03-28 13:00:00,43.7,34.9,30.13,West,265,4.0,4.0,71,0.00,CLR,,0.01,WeatherDisplay:10.37,2013-03-28 17:00:00,
2013-03-28 13:05:00,43.9,34.0,30.12,WNW,290,6.9,6.9,68,0.00,CLR,,0.01,WeatherDisplay:10.37,2013-03-28 17:05:00,
2013-03-28 13:10:00,44.1,34.2,30.12,NNE,15,5.8,5.8,68,0.00,CLR,,0.01,WeatherDisplay:10.37,2013-03-28 17:10:00,
2013-03-28 13:15:00,44.4,35.2,30.12,WSW,241,0.0,0.0,70,0.00,CLR,,0.01,WeatherDisplay:10.37,2013-03-28 17:15:00,
2013-03-28 13:20:00,45.4,35.5,30.12,WSW,253,3.5,3.5,68,0.00,CLR,,0.01,WeatherDisplay:10.37,2013-03-28 17:20:00,
2013-03-28 13:25:00,45.6,34.9,30.13,West,274,10.4,10.4,66,0.00,CLR,,0.01,WeatherDisplay:10.37,2013-03-28 17:25:00,
2013-03-28 13:30:00,45.8,34.7,30.12,WNW,293,8.1,8.1,65,0.00,CLR,,0.01,WeatherDisplay:10.37,2013-03-28 17:30:00,
2013-03-28 13:35:00,45.8,34.3,30.12,WNW,284,4.6,4.6,64,0.00,CLR,,0.01,WeatherDisplay:10.37,2013-03-28 17:35:00,
2013-03-28 13:40:00,45.4,33.1,30.12,WSW,240,9.2,9.2,62,0.00,CLR,,0.01,WeatherDisplay:10.37,2013-03-28 17:40:00,
2013-03-28 13:45:00,45.5,33.6,30.12,NW,323,7.0,7.0,63,0.00,CLR,,0.01,WeatherDisplay:10.37,2013-03-28 17:45:00,
2013-03-28 13:50:00,45.5,32.4,30.13,NE,37,3.5,3.5,60,0.00,CLR,,0.01,WeatherDisplay:10.37,2013-03-28 17:50:00,
2013-03-28 13:55:00,45.5,32.4,30.13,West,277,8.1,8.1,60,0.00,CLR,,0.01,WeatherDisplay:10.37,2013-03-28 17:55:00,
2013-03-28 14:00:00,45.1,31.2,30.13,WNW,291,9.2,9.2,58,0.00,CLR,,0.01,WeatherDisplay:10.37,2013-03-28 18:00:00,
2013-03-28 14:05:00,45.6,32.1,30.12,NW,326,9.0,9.0,59,0.00,CLR,,0.01,WeatherDisplay:10.37,2013-03-28 18:05:00,
2013-03-28 14:10:00,45.6,31.2,30.12,NW,314,6.9,6.9,57,0.00,CLR,,0.01,WeatherDisplay:10.37,2013-03-28 18:10:00,
2013-03-28 14:15:00,46.2,32.2,30.12,WSW,253,3.5,3.5,58,0.00,CLR,,0.01,WeatherDisplay:10.37,2013-03-28 18:15:00,
2013-03-28 14:20:00,46.3,31.0,30.12,WSW,252,6.9,6.9,55,0.00,CLR,,0.01,WeatherDisplay:10.37,2013-03-28 18:20:00,
2013-03-28 14:25:00,46.3,31.4,30.12,NW,311,8.1,8.1,56,0.00,CLR,,0.01,WeatherDisplay:10.37,2013-03-28 18:25:00,
2013-03-28 14:30:00,46.5,31.2,30.12,WNW,284,6.9,6.9,55,0.00,CLR,,0.01,WeatherDisplay:10.37,2013-03-28 18:30:00,
2013-03-28 14:35:00,47.3,32.4,30.12,WSW,248,3.5,3.5,56,0.00,CLR,,0.01,WeatherDisplay:10.37,2013-03-28 18:35:00,
2013-03-28 14:40:00,47.0,30.7,30.12,NNW,345,6.9,6.9,53,0.00,CLR,,0.01,WeatherDisplay:10.37,2013-03-28 18:40:00,
2013-03-28 14:45:00,45.7,29.1,30.12,WNW,282,5.8,5.8,52,0.00,CLR,,0.01,WeatherDisplay:10.37,2013-03-28 18:45:00,
2013-03-28 14:50:00,45.2,30.0,30.12,NW,316,8.1,8.1,55,0.00,CLR,,0.01,WeatherDisplay:10.37,2013-03-28 18:50:00,
2013-03-28 14:55:00,45.2,31.3,30.12,WNW,290,3.5,3.5,58,0.00,CLR,,0.01,WeatherDisplay:10.37,2013-03-28 18:55:00,
2013-03-28 15:00:00,45.8,33.1,30.12,ENE,59,4.6,4.6,61,0.00,CLR,,0.01,WeatherDisplay:10.37,2013-03-28 19:00:00,
2013-03-28 15:06:00,46.3,33.2,30.12,NE,41,5.8,5.8,60,0.00,CLR,,0.01,WeatherDisplay:10.37,2013-03-28 19:06:00,
2013-03-28 15:11:00,46.7,31.8,30.12,WNW,289,5.8,5.8,56,0.00,CLR,,0.01,WeatherDisplay:10.37,2013-03-28 19:11:00,
2013-03-28 15:16:00,46.7,30.5,30.12,West,281,6.9,7.5,53,0.00,CLR,,0.01,WeatherDisplay:10.37,2013-03-28 19:16:00,
2013-03-28 15:21:00,46.7,30.5,30.12,WNW,288,11.5,11.5,53,0.00,CLR,,0.01,WeatherDisplay:10.37,2013-03-28 19:21:00,
2013-03-28 15:26:00,46.3,30.5,30.12,WNW,287,6.9,6.9,54,0.00,CLR,,0.01,WeatherDisplay:10.37,2013-03-28 19:26:00,
2013-03-28 15:31:00,45.9,29.7,30.12,West,278,6.9,6.9,53,0.00,CLR,,0.01,WeatherDisplay:10.37,2013-03-28 19:31:00,
2013-03-28 15:36:00,46.0,30.7,30.12,NE,46,8.1,8.1,55,0.00,CLR,,0.01,WeatherDisplay:10.37,2013-03-28 19:36:00,
2013-03-28 15:41:00,45.6,30.8,30.12,NNW,338,5.8,5.8,56,0.00,CLR,,0.01,WeatherDisplay:10.37,2013-03-28 19:41:00,
2013-03-28 15:46:00,45.7,31.3,30.12,WNW,299,3.5,3.5,57,0.00,CLR,,0.01,WeatherDisplay:10.37,2013-03-28 19:46:00,
2013-03-28 15:51:00,46.0,32.0,30.12,WNW,290,4.0,4.0,58,0.00,CLR,,0.01,WeatherDisplay:10.37,2013-03-28 19:51:00,
2013-03-28 15:56:00,45.9,32.4,30.12,West,270,6.9,6.9,59,0.00,CLR,,0.01,WeatherDisplay:10.37,2013-03-28 19:56:00,
2013-03-28 16:01:00,46.2,32.7,30.12,NW,314,9.0,9.0,59,0.00,CLR,,0.01,WeatherDisplay:10.37,2013-03-28 20:01:00,
2013-03-28 16:06:00,46.7,33.5,30.12,WSW,257,4.6,4.6,60,0.00,CLR,,0.01,WeatherDisplay:10.37,2013-03-28 20:06:00,
2013-03-28 16:11:00,46.6,32.6,30.12,NNW,330,3.5,3.5,58,0.00,CLR,,0.01,WeatherDisplay:10.37,2013-03-28 20:11:00,
2013-03-28 16:17:00,45.9,31.9,30.12,West,269,8.1,8.1,58,0.00,CLR,,0.01,WeatherDisplay:10.37,2013-03-28 20:17:00,
2013-03-28 16:22:00,45.7,31.8,30.12,WNW,293,7.0,7.0,58,0.00,CLR,,0.01,WeatherDisplay:10.37,2013-03-28 20:22:00,
2013-03-28 16:26:00,45.5,30.7,30.12,WNW,301,5.8,5.8,56,0.00,CLR,,0.01,WeatherDisplay:10.37,2013-03-28 20:26:00,
2013-03-28 16:32:00,45.5,31.1,30.12,NW,314,5.8,5.8,57,0.00,CLR,,0.01,WeatherDisplay:10.37,2013-03-28 20:32:00,
2013-03-28 16:37:00,45.6,32.5,30.13,West,266,5.0,5.0,60,0.00,CLR,,0.01,WeatherDisplay:10.37,2013-03-28 20:37:00,
2013-03-28 16:42:00,45.6,32.1,30.13,NNW,330,5.0,5.0,59,0.00,CLR,,0.01,WeatherDisplay:10.37,2013-03-28 20:42:00,
2013-03-28 16:47:00,45.5,32.8,30.13,West,277,4.0,4.0,61,0.00,CLR,,0.01,WeatherDisplay:10.37,2013-03-28 20:47:00,
2013-03-28 16:52:00,45.3,33.0,30.13,WNW,283,2.0,2.0,62,0.00,CLR,,0.01,WeatherDisplay:10.37,2013-03-28 20:52:00,
2013-03-28 16:57:00,45.0,31.5,30.13,NW,306,5.0,5.0,59,0.00,CLR,,0.01,WeatherDisplay:10.37,2013-03-28 20:57:00,
2013-03-28 17:02:00,45.0,32.3,30.13,NW,313,8.0,8.0,61,0.00,CLR,,0.01,WeatherDisplay:10.37,2013-03-28 21:02:00,
2013-03-28 17:07:00,45.3,32.2,30.13,West,260,5.0,5.0,60,0.00,CLR,,0.01,WeatherDisplay:10.37,2013-03-28 21:07:00,
2013-03-28 17:12:00,45.2,30.9,30.13,WNW,285,4.6,4.6,57,0.00,CLR,,0.01,WeatherDisplay:10.37,2013-03-28 21:12:00,
2013-03-28 17:17:00,45.4,31.9,30.13,NNW,335,3.5,3.5,59,0.00,CLR,,0.01,WeatherDisplay:10.37,2013-03-28 21:17:00,
2013-03-28 17:22:00,45.3,31.0,30.14,West,276,9.2,9.2,57,0.00,CLR,,0.01,WeatherDisplay:10.37,2013-03-28 21:22:00,
2013-03-28 17:27:00,45.2,31.3,30.14,NW,311,6.9,6.9,58,0.00,CLR,,0.01,WeatherDisplay:10.37,2013-03-28 21:27:00,
2013-03-28 17:32:00,45.0,31.1,30.14,WNW,297,6.9,6.9,58,0.00,CLR,,0.01,WeatherDisplay:10.37,2013-03-28 21:32:00,
2013-03-28 17:37:00,44.8,30.5,30.14,SW,221,2.3,2.3,57,0.00,CLR,,0.01,WeatherDisplay:10.37,2013-03-28 21:37:00,
2013-03-28 17:42:00,44.8,31.3,30.14,WNW,295,3.5,3.5,59,0.00,CLR,,0.01,WeatherDisplay:10.37,2013-03-28 21:42:00,
2013-03-28 17:47:00,44.6,32.0,30.14,West,266,6.0,6.0,61,0.00,CLR,,0.01,WeatherDisplay:10.37,2013-03-28 21:47:00,
2013-03-28 17:52:00,44.4,30.5,30.14,NW,314,10.4,10.4,58,0.00,CLR,,0.01,WeatherDisplay:10.37,2013-03-28 21:52:00,
2013-03-28 17:57:00,44.2,31.2,30.14,West,264,4.0,4.0,60,0.00,CLR,,0.01,WeatherDisplay:10.37,2013-03-28 21:57:00,
2013-03-28 18:02:00,44.2,30.8,30.14,NNW,345,3.5,3.5,59,0.00,CLR,,0.01,WeatherDisplay:10.37,2013-03-28 22:02:00,
2013-03-28 18:07:00,44.1,30.3,30.14,West,270,3.5,3.5,58,0.00,CLR,,0.01,WeatherDisplay:10.37,2013-03-28 22:07:00,
2013-03-28 18:12:00,44.0,30.2,30.14,ENE,59,3.5,3.5,58,0.00,CLR,,0.01,WeatherDisplay:10.37,2013-03-28 22:12:00,
2013-03-28 18:17:00,43.9,30.1,30.15,NNE,25,3.5,3.5,58,0.00,CLR,,0.01,WeatherDisplay:10.37,2013-03-28 22:17:00,
2013-03-28 18:22:00,43.7,29.5,30.15,West,270,5.8,5.8,57,0.00,CLR,,0.01,WeatherDisplay:10.37,2013-03-28 22:22:00,
2013-03-28 18:27:00,43.5,29.3,30.15,WNW,287,6.9,6.9,57,0.00,CLR,,0.01,WeatherDisplay:10.37,2013-03-28 22:27:00,
2013-03-28 18:32:00,43.4,29.6,30.15,West,281,6.9,6.9,58,0.00,CLR,,0.01,WeatherDisplay:10.37,2013-03-28 22:32:00,
2013-03-28 18:37:00,43.3,28.6,30.15,West,281,5.8,5.8,56,0.00,CLR,,0.01,WeatherDisplay:10.37,2013-03-28 22:37:00,
2013-03-28 18:42:00,43.2,28.5,30.15,WNW,283,5.8,5.8,56,0.00,CLR,,0.01,WeatherDisplay:10.37,2013-03-28 22:42:00,
2013-03-28 18:47:00,43.2,29.0,30.16,NNW,343,4.6,4.6,57,0.00,CLR,,0.01,WeatherDisplay:10.37,2013-03-28 22:47:00,
2013-03-28 18:52:00,43.0,28.8,30.16,SW,225,5.8,5.8,57,0.00,CLR,,0.01,WeatherDisplay:10.37,2013-03-28 22:52:00,
2013-03-28 18:57:00,42.9,28.3,30.16,NNW,335,3.5,3.5,56,0.00,CLR,,0.01,WeatherDisplay:10.37,2013-03-28 22:57:00,
2013-03-28 19:02:00,42.7,28.1,30.16,West,266,6.9,6.9,56,0.00,CLR,,0.01,WeatherDisplay:10.37,2013-03-28 23:02:00,
2013-03-28 19:07:00,42.7,28.1,30.16,West,266,4.6,4.6,56,0.00,CLR,,0.01,WeatherDisplay:10.37,2013-03-28 23:07:00,
2013-03-28 19:12:00,42.5,27.9,30.17,West,266,3.5,3.5,56,0.00,CLR,,0.01,WeatherDisplay:10.37,2013-03-28 23:12:00,
2013-03-28 19:17:00,42.3,28.1,30.17,West,267,3.5,0.0,57,0.00,CLR,,0.01,WeatherDisplay:10.37,2013-03-28 23:17:00,
2013-03-28 19:22:00,42.2,28.5,30.17,North,352,3.5,3.5,58,0.00,CLR,,0.01,WeatherDisplay:10.37,2013-03-28 23:22:00,
2013-03-28 19:27:00,42.1,28.8,30.17,WNW,293,2.3,2.3,59,0.00,CLR,,0.01,WeatherDisplay:10.37,2013-03-28 23:27:00,
2013-03-28 19:32:00,42.0,28.3,30.17,NW,315,5.8,5.8,58,0.00,CLR,,0.01,WeatherDisplay:10.37,2013-03-28 23:32:00,
2013-03-28 19:38:00,41.9,29.0,30.17,NW,314,3.0,3.0,60,0.00,CLR,,0.01,WeatherDisplay:10.37,2013-03-28 23:38:00,
2013-03-28 19:43:00,41.8,28.5,30.17,NNE,22,5.8,5.8,59,0.00,CLR,,0.01,WeatherDisplay:10.37,2013-03-28 23:43:00,
2013-03-28 19:48:00,41.7,28.8,30.17,West,273,3.5,3.5,60,0.00,CLR,,0.01,WeatherDisplay:10.37,2013-03-28 23:48:00,
2013-03-28 19:53:00,41.6,28.7,30.17,WNW,293,2.3,2.3,60,0.00,CLR,,0.01,WeatherDisplay:10.37,2013-03-28 23:53:00,
2013-03-28 19:58:00,41.6,29.1,30.17,WNW,284,1.1,1.1,61,0.00,CLR,,0.01,WeatherDisplay:10.37,2013-03-28 23:58:00,
2013-03-28 20:03:00,41.4,28.9,30.18,WSW,248,0.0,0.0,61,0.00,CLR,,0.01,WeatherDisplay:10.37,2013-03-29 00:03:00,
2013-03-28 20:08:00,41.3,29.3,30.18,West,269,1.1,0.0,62,0.00,CLR,,0.01,WeatherDisplay:10.37,2013-03-29 00:08:00,
2013-03-28 20:13:00,41.3,29.3,30.18,WNW,303,1.1,0.0,62,0.00,CLR,,0.01,WeatherDisplay:10.37,2013-03-29 00:13:00,
2013-03-28 20:18:00,41.3,29.3,30.18,East,94,1.0,0.0,62,0.00,CLR,,0.01,WeatherDisplay:10.37,2013-03-29 00:18:00,
2013-03-28 20:23:00,41.3,29.3,30.18,WSW,243,1.1,1.1,62,0.00,CLR,,0.01,WeatherDisplay:10.37,2013-03-29 00:23:00,
2013-03-28 20:28:00,41.3,29.6,30.18,WSW,257,1.1,0.0,63,0.00,CLR,,0.01,WeatherDisplay:10.37,2013-03-29 00:28:00,
2013-03-28 20:33:00,41.2,29.2,30.18,West,265,1.1,1.1,62,0.00,CLR,,0.01,WeatherDisplay:10.37,2013-03-29 00:33:00,
2013-03-28 20:38:00,41.2,28.8,30.18,SW,215,1.1,0.0,61,0.00,CLR,,0.01,WeatherDisplay:10.37,2013-03-29 00:38:00,
2013-03-28 20:43:00,41.3,29.6,30.18,West,264,1.1,0.0,63,0.00,CLR,,0.01,WeatherDisplay:10.37,2013-03-29 00:43:00,
2013-03-28 20:48:00,41.2,30.3,30.18,North,11,2.3,2.3,65,0.00,CLR,,0.01,WeatherDisplay:10.37,2013-03-29 00:48:00,
2013-03-28 20:53:00,41.2,31.8,30.18,West,264,1.0,1.0,69,0.00,CLR,,0.01,WeatherDisplay:10.37,2013-03-29 00:53:00,
2013-03-28 20:58:00,41.2,32.5,30.19,NW,315,4.0,4.0,71,0.00,CLR,,0.01,WeatherDisplay:10.37,2013-03-29 00:58:00,
2013-03-28 21:03:00,41.2,32.9,30.18,WSW,249,1.1,1.1,72,0.00,CLR,,0.01,WeatherDisplay:10.37,2013-03-29 01:03:00,
2013-03-28 21:08:00,41.1,33.1,30.19,NW,319,1.1,1.1,73,0.00,CLR,,0.01,WeatherDisplay:10.37,2013-03-29 01:08:00,
2013-03-28 21:13:00,41.0,33.0,30.19,West,270,2.3,2.3,73,0.00,CLR,,0.01,WeatherDisplay:10.37,2013-03-29 01:13:00,
2013-03-28 21:18:00,40.9,33.2,30.19,West,263,3.5,3.5,74,0.00,CLR,,0.01,WeatherDisplay:10.37,2013-03-29 01:18:00,
2013-03-28 21:23:00,40.6,33.0,30.19,WSW,238,1.1,1.1,74,0.00,CLR,,0.01,WeatherDisplay:10.37,2013-03-29 01:23:00,
2013-03-28 21:28:00,40.4,33.1,30.19,West,263,1.1,1.1,75,0.00,CLR,,0.01,WeatherDisplay:10.37,2013-03-29 01:28:00,
2013-03-28 21:33:00,40.0,32.7,30.19,NW,309,1.1,1.1,75,0.00,CLR,,0.01,WeatherDisplay:10.37,2013-03-29 01:33:00,
2013-03-28 21:38:00,39.7,32.8,30.19,WNW,294,7.0,7.0,76,0.00,CLR,,0.01,WeatherDisplay:10.37,2013-03-29 01:38:00,
2013-03-28 21:43:00,39.7,32.8,30.19,West,264,1.1,1.1,76,0.00,CLR,,0.01,WeatherDisplay:10.37,2013-03-29 01:43:00,
2013-03-28 21:48:00,39.5,32.9,30.19,NNE,27,0.0,0.5,77,0.00,CLR,,0.01,WeatherDisplay:10.37,2013-03-29 01:48:00,
2013-03-28 21:53:00,39.1,32.5,30.19,WNW,283,0.0,0.0,77,0.00,CLR,,0.01,WeatherDisplay:10.37,2013-03-29 01:53:00,
2013-03-28 21:58:00,38.8,32.8,30.19,WNW,283,1.1,1.1,79,0.00,CLR,,0.01,WeatherDisplay:10.37,2013-03-29 01:58:00,
2013-03-28 22:03:00,38.5,32.6,30.19,NE,34,0.0,0.3,79,0.00,,,0.01,WeatherDisplay:10.37,2013-03-29 02:03:00,
2013-03-28 22:08:00,38.3,32.4,30.19,NE,41,0.0,0.0,79,0.00,,,0.01,WeatherDisplay:10.37,2013-03-29 02:08:00,
2013-03-28 22:13:00,38.1,32.5,30.20,West,267,0.0,0.0,80,0.00,,,0.01,WeatherDisplay:10.37,2013-03-29 02:13:00,
2013-03-28 22:18:00,37.9,32.6,30.20,SE,141,0.0,0.0,81,0.00,,,0.01,WeatherDisplay:10.37,2013-03-29 02:18:00,
2013-03-28 22:23:00,37.7,32.4,30.19,SSE,155,0.0,0.0,81,0.00,,,0.01,WeatherDisplay:10.37,2013-03-29 02:23:00,
2013-03-28 22:29:00,37.7,32.7,30.19,West,263,0.0,0.0,82,0.00,,,0.01,WeatherDisplay:10.37,2013-03-29 02:29:00,
2013-03-28 22:34:00,37.7,32.7,30.19,WSW,257,3.5,3.5,82,0.00,,,0.01,WeatherDisplay:10.37,2013-03-29 02:34:00,
2013-03-28 22:39:00,37.5,32.5,30.19,West,264,0.0,0.0,82,0.00,,,0.01,WeatherDisplay:10.37,2013-03-29 02:39:00,
2013-03-28 22:44:00,37.4,32.4,30.20,ENE,73,1.1,0.0,82,0.00,,,0.01,WeatherDisplay:10.37,2013-03-29 02:44:00,
2013-03-28 22:49:00,37.3,32.3,30.19,ENE,73,0.0,0.0,82,0.00,,,0.01,WeatherDisplay:10.37,2013-03-29 02:49:00,
2013-03-28 22:54:00,37.5,32.8,30.19,West,264,2.0,2.0,83,0.00,,,0.01,WeatherDisplay:10.37,2013-03-29 02:54:00,
2013-03-28 22:59:00,37.9,32.9,30.19,WSW,258,2.3,2.3,82,0.00,,,0.01,WeatherDisplay:10.37,2013-03-29 02:59:00,
2013-03-28 23:04:00,38.1,33.1,30.19,WNW,302,1.1,1.1,82,0.00,,,0.01,WeatherDisplay:10.37,2013-03-29 03:04:00,
2013-03-28 23:09:00,38.2,33.2,30.20,WNW,297,1.0,1.0,82,0.00,,,0.01,WeatherDisplay:10.37,2013-03-29 03:09:00,
2013-03-28 23:14:00,38.4,33.4,30.20,West,278,1.1,1.1,82,0.00,,,0.01,WeatherDisplay:10.37,2013-03-29 03:14:00,
2013-03-28 23:19:00,38.4,33.1,30.20,West,260,0.0,0.0,81,0.00,,,0.01,WeatherDisplay:10.37,2013-03-29 03:19:00,
2013-03-28 23:24:00,38.5,33.2,30.19,WSW,239,0.0,0.0,81,0.00,,,0.01,WeatherDisplay:10.37,2013-03-29 03:24:00,
2013-03-28 23:29:00,38.5,33.2,30.19,West,259,2.3,2.3,81,0.00,,,0.01,WeatherDisplay:10.37,2013-03-29 03:29:00,
2013-03-28 23:34:00,38.6,33.3,30.19,NNW,341,4.6,4.6,81,0.00,,,0.01,WeatherDisplay:10.37,2013-03-29 03:34:00,
2013-03-28 23:39:00,38.6,33.3,30.19,SW,215,3.5,3.5,81,0.00,,,0.01,WeatherDisplay:10.37,2013-03-29 03:39:00,
2013-03-28 23:44:00,38.6,33.3,30.19,West,260,2.3,2.3,81,0.00,,,0.01,WeatherDisplay:10.37,2013-03-29 03:44:00,
2013-03-28 23:49:00,38.6,33.3,30.19,WSW,251,2.3,2.3,81,0.00,,,0.01,WeatherDisplay:10.37,2013-03-29 03:49:00,
2013-03-28 23:54:00,38.6,33.3,30.19,WNW,287,1.1,1.1,81,0.00,,,0.01,WeatherDisplay:10.37,2013-03-29 03:54:00,
2013-03-28 23:59:00,38.7,33.4,30.19,West,273,2.3,2.3,81,0.00,,,0.01,WeatherDisplay:10.37,2013-03-29 03:59:00,